FW7889 Weather Reports


time (UTC)temp
F
wind
direction
speed
knots
gust
knots
rain 1hr
in
rain 24hr
in
rain mn
in
humidity
%
barometer
mb
20260906025502 58 275 0.0 0.0 0.00 0.00 0.00 99 1069.3
20260906024501 58 275 0.0 0.0 0.00 0.00 0.00 99 1069.0
20260906023458 58 284 0.0 0.0 0.00 0.00 0.00 99 1069.2
20260906022454 58 289 0.0 0.0 0.00 0.00 0.00 99 1069.1
20260906021449 58 291 0.0 0.0 0.00 0.00 0.00 99 1069.2
20260906020444 58 290 0.0 0.0 0.00 0.00 0.00 99 1069.2
20260906015443 58 285 0.0 0.0 0.00 0.00 0.00 99 1069.3
20260906014443 59 286 0.0 0.0 0.00 0.00 0.00 99 1069.2
20260906013440 59 289 0.0 0.0 0.00 0.00 0.00 99 1069.1
20260906012436 60 293 0.9 0.9 0.00 0.00 0.00 98 1069.1
20260906011431 61 285 0.0 0.0 0.00 0.00 0.00 96 1069.2
20260906010427 62 67 0.9 0.9 0.00 0.00 0.00 97 1069.5
20260906005423 61 281 0.0 0.0 0.00 0.00 0.00 97 1069.3
20260906004422 61 283 0.0 0.0 0.00 0.00 0.00 98 1069.3
20260906003419 61 284 0.0 0.0 0.00 0.00 0.00 98 1069.2
20260906002419 61 284 0.0 0.0 0.00 0.00 0.00 97 1069.2
20260906001416 62 283 0.0 0.0 0.00 0.00 0.00 96 1068.9
20260906000411 63 283 0.0 0.0 0.00 0.00 0.00 95 1069.0
20260905235406 63 284 0.0 0.0 0.00 0.00 0.00 93 1069.1
20260905234402 63 287 0.0 0.0 0.00 0.00 0.00 93 1069.2
20260905233358 63 290 0.9 0.9 0.00 0.00 0.00 94 1068.9
20260905232354 62 284 0.0 0.0 0.00 0.00 0.00 95 1068.8
20260905231349 62 284 0.0 0.0 0.00 0.00 0.00 95 1068.7
20260905230349 63 284 0.0 0.0 0.00 0.00 0.00 94 1068.8
20260905225344 64 284 0.0 0.0 0.00 0.00 0.00 91 1068.4
20260905224341 64 284 0.0 0.0 0.00 0.00 0.00 91 1068.9
20260905223339 64 282 0.0 0.0 0.00 0.00 0.00 90 1069.0
20260905222338 65 293 0.0 0.0 0.00 0.00 0.00 89 1068.9
20260905221337 65 287 0.0 0.0 0.00 0.00 0.00 87 1068.5
20260905220334 66 296 0.9 0.9 0.00 0.00 0.00 85 1068.2
20260905215329 66 296 0.0 0.9 0.00 0.00 0.00 84 1068.0
20260905214326 68 335 0.9 0.9 0.00 0.00 0.00 79 1068.0
20260905213323 68 260 0.0 0.9 0.00 0.00 0.00 78 1068.1
20260905212324 69 94 1.7 1.7 0.00 0.00 0.00 77 1067.9
20260905211319 68 280 0.0 0.9 0.00 0.00 0.00 81 1067.9
20260905210315 68 320 0.9 0.9 0.00 0.00 0.00 83 1067.8
20260905205315 68 211 0.9 0.9 0.00 0.00 0.00 83 1067.7
20260905204311 67 146 0.9 0.9 0.00 0.00 0.00 83 1068.0
20260905203305 68 293 0.0 0.0 0.00 0.00 0.00 82 1067.9
20260905202301 69 326 3.5 4.3 0.00 0.00 0.00 79 1067.9
20260905201258 68 282 0.0 0.0 0.00 0.00 0.00 80 1067.7
20260905200254 68 301 0.9 0.9 0.00 0.00 0.00 82 1067.8
20260905195253 68 178 0.9 0.9 0.00 0.00 0.00 82 1067.6
20260905194248 68 58 1.7 1.7 0.00 0.00 0.00 81 1067.5
20260905193243 70 281 0.0 0.9 0.00 0.00 0.00 76 1067.5
20260905192241 69 290 0.9 1.7 0.00 0.00 0.00 78 1067.5
20260905191238 68 336 0.0 0.9 0.00 0.00 0.00 83 1067.4
20260905190236 67 293 0.0 0.9 0.00 0.00 0.00 86 1067.6
20260905185236 67 306 1.7 1.7 0.00 0.00 0.00 86 1067.7
20260905184235 67 304 0.9 0.9 0.00 0.00 0.00 86 1067.7
20260905183230 66 315 0.9 1.7 0.00 0.00 0.00 89 1067.7
20260905182230 67 314 0.9 1.7 0.00 0.00 0.00 86 1067.7
20260905181230 69 306 2.6 2.6 0.00 0.00 0.00 79 1067.7
20260905180226 69 348 4.3 5.2 0.00 0.00 0.00 78 1067.5
20260905175227 68 320 2.6 2.6 0.00 0.00 0.00 81 1067.8
20260905174223 69 339 2.6 4.3 0.00 0.00 0.00 80 1067.6
20260905173221 69 316 0.9 0.9 0.00 0.00 0.00 80 1067.5
20260905172220 69 293 0.9 0.9 0.00 0.00 0.00 81 1067.5
20260905171218 68 332 2.6 2.6 0.00 0.00 0.00 82 1067.5
20260905170215 69 292 0.9 0.9 0.00 0.00 0.00 80 1067.3
20260905165210 68 316 0.9 0.9 0.00 0.00 0.00 84 1067.3
20260905164210 68 316 1.7 1.7 0.00 0.00 0.00 83 1067.8
20260905163208 68 333 2.6 2.6 0.00 0.00 0.00 82 1067.7
20260905162204 68 306 0.9 0.9 0.00 0.00 0.00 78 1067.8
20260905161203 69 297 0.9 1.7 0.00 0.00 0.00 82 1067.8
20260905160201 69 336 0.9 0.9 0.00 0.00 0.00 78 1067.9
20260905155201 67 75 1.7 1.7 0.00 0.00 0.00 83 1067.9
20260905154156 66 324 2.6 2.6 0.00 0.00 0.00 84 1068.1
20260905153154 66 28 2.6 2.6 0.00 0.00 0.00 82 1068.1
20260905152149 66 92 1.7 1.7 0.00 0.00 0.00 83 1068.2
20260905151145 65 313 0.9 0.9 0.00 0.00 0.00 86 1068.2
20260905150144 64 327 4.3 5.2 0.00 0.00 0.00 87 1068.4
20260905145142 64 303 0.0 0.0 0.00 0.00 0.00 89 1068.3
20260905144142 65 328 3.5 4.3 0.00 0.00 0.00 89 1068.3
20260905143137 64 311 0.9 0.9 0.00 0.00 0.00 88 1068.3
20260905142136 63 342 1.7 2.6 0.00 0.00 0.00 91 1068.4
20260905141132 62 342 1.7 1.7 0.00 0.00 0.00 93 1068.5
20260905140132 61 304 0.0 0.9 0.00 0.00 0.00 95 1068.4
20260905135129 60 300 0.9 0.9 0.00 0.00 0.00 98 1068.4
20260905134128 60 305 0.0 0.9 0.00 0.00 0.00 99 1068.5
20260905133124 59 300 0.0 0.9 0.00 0.00 0.00 99 1068.4
20260905132124 58 291 0.0 0.0 0.00 0.00 0.00 99 1068.8
20260905131120 58 319 0.9 1.7 0.00 0.00 0.00 99 1068.7
20260905130120 58 299 0.0 0.0 0.00 0.00 0.00 99 1068.8
20260905125116 58 297 0.9 0.9 0.00 0.00 0.00 99 1068.8
20260905124114 58 291 0.0 0.0 0.00 0.00 0.00 99 1068.4
20260905123112 57 298 0.0 0.9 0.00 0.00 0.00 99 1068.3
20260905122112 57 282 0.0 0.0 0.00 0.00 0.00 99 1068.1
20260905121108 57 282 0.0 0.0 0.00 0.00 0.00 99 1068.4
20260905120108 57 293 0.0 0.0 0.00 0.00 0.00 99 1068.2
20260905115108 57 312 0.9 0.9 0.00 0.00 0.00 99 1068.1
20260905114106 57 282 0.9 0.9 0.00 0.00 0.00 99 1068.1
20260905113103 57 272 0.0 0.0 0.00 0.00 0.00 99 1067.7
20260905112059 57 283 0.0 0.0 0.00 0.00 0.00 99 1067.4
20260905111059 57 81 2.6 2.6 0.00 0.00 0.00 99 1067.5
20260905110059 57 289 0.9 0.9 0.00 0.00 0.00 99 1067.5
20260905105059 57 284 0.0 0.0 0.00 0.00 0.00 99 1067.2
20260905104054 57 284 0.0 0.0 0.00 0.00 0.00 99 1067.2
20260905103052 56 284 0.0 0.0 0.00 0.00 0.00 99 1067.3
20260905102050 56 280 0.0 0.0 0.00 0.00 0.00 99 1067.3
20260905101046 56 299 0.0 0.9 0.00 0.00 0.00 99 1067.2
20260905100043 56 284 0.0 0.0 0.00 0.00 0.00 99 1067.2
20260905095038 55 284 0.0 0.0 0.00 0.00 0.00 99 1067.1
20260905094038 55 286 0.0 0.0 0.00 0.00 0.00 99 1067.1
20260905093035 54 295 0.0 0.0 0.00 0.00 0.00 99 1067.2
20260905092031 54 298 0.0 0.9 0.00 0.00 0.00 99 1067.2
20260905091030 54 296 0.0 0.0 0.00 0.00 0.00 99 1067.2
20260905090026 55 301 0.9 0.9 0.00 0.00 0.00 99 1067.1
20260905085020 55 286 0.0 0.0 0.00 0.00 0.00 99 1067.2
20260905084020 55 287 0.0 0.0 0.00 0.00 0.00 99 1067.2
20260905083018 55 284 0.0 0.0 0.00 0.00 0.00 99 1067.2
20260905082015 55 284 0.0 0.0 0.00 0.00 0.00 99 1067.1
20260905081014 55 285 0.0 0.0 0.00 0.00 0.00 99 1067.1
20260905080009 55 285 0.0 0.0 0.00 0.00 0.00 99 1067.5
20260905075008 55 286 0.0 0.0 0.00 0.00 0.00 99 1067.4
20260905074005 55 286 0.0 0.0 0.00 0.00 0.00 99 1067.3
20260905073001 55 286 0.0 0.0 0.00 0.00 0.00 99 1067.1
20260905071957 55 289 0.0 0.0 0.00 0.00 0.00 99 1067.1
20260905070953 56 312 0.0 0.0 0.00 0.00 0.00 99 1067.3
20260905065949 55 284 0.0 0.0 0.00 0.00 0.00 99 1067.4
20260905064949 55 289 0.0 0.0 0.00 0.00 0.00 99 1067.4
20260905063944 54 287 0.0 0.0 0.00 0.00 0.00 99 1067.4
20260905062941 55 284 0.0 0.0 0.00 0.00 0.00 99 1067.5
20260905061936 55 284 0.0 0.0 0.00 0.00 0.00 99 1067.4
20260905060935 55 284 0.0 0.0 0.00 0.00 0.00 99 1067.2
20260905055931 56 284 0.0 0.0 0.00 0.00 0.00 99 1067.3
20260905054931 55 284 0.0 0.0 0.00 0.00 0.00 99 1067.5
20260905053926 56 287 0.0 0.0 0.00 0.00 0.00 99 1067.6
20260905052923 56 284 0.0 0.0 0.00 0.00 0.00 99 1067.4
20260905051922 57 284 0.0 0.0 0.00 0.00 0.00 99 1067.6
20260905050921 57 287 0.0 0.0 0.00 0.00 0.00 99 1067.6
20260905045918 57 289 0.0 0.0 0.00 0.00 0.00 99 1067.7
20260905044915 57 298 0.0 0.0 0.00 0.00 0.00 99 1067.6
20260905043914 58 289 0.0 0.0 0.00 0.00 0.00 99 1067.8
20260905042914 58 286 0.0 0.0 0.00 0.00 0.00 99 1067.9
20260905041910 59 293 0.0 0.0 0.00 0.00 0.00 99 1067.5
20260905040906 59 292 0.0 0.0 0.00 0.00 0.00 99 1067.7
20260905035905 60 284 0.0 0.0 0.00 0.00 0.00 99 1067.4
20260905034903 60 283 0.0 0.0 0.00 0.00 0.00 99 1067.5
20260905033903 61 284 0.0 0.0 0.00 0.00 0.00 99 1067.5
20260905032904 61 284 0.0 0.0 0.00 0.00 0.00 99 1067.3
20260905031900 61 284 0.0 0.0 0.00 0.00 0.00 99 1067.4
20260905030857 61 285 0.0 0.0 0.00 0.00 0.00 99 1067.7